Terug naar catalogus

FENGYUN 1C DEB

ActiefSSO
NORAD 30303·DEBRIS·🇨🇳 China

Gelanceerd May 10, 1999 vanaf Taiyuan Satellite Launch Center

Loading…

Volgende Passages (komende 24 uur)

TLE

VersSource: Space-Track

Epoch: Sep 14, 2026, 05:02 UTC

1 30303U 99025ZQ  26257.21022641  .00003554  00000-0  13931-2 0  9990
2 30303  99.0116 348.0088 0075144 206.4817 153.2515 14.28529962  8869

Volg FENGYUN 1C DEB in realtime met AllMySat

Download on the App Store